Change the Weather History Date:

Sunday, October 28, 2012

  Actual Average Record
Temperature  
Mean Temperature 59 °F 51 °F  
Max Temperature 63 °F 59 °F 72 °F (2003)
Min Temperature 55 °F 44 °F 26 °F (1946)
Degree Days  
Heating Degree Days 6 14  
Month to date heating degree days 255 273  
Since 1 July heating degree days 313 376  
Cooling Degree Days 0 0  
Month to date cooling degree days 1 0  
Year to date cooling degree days 436 422  
Growing Degree Days 6 (Base 50)    
Moisture  
Dew Point 57 °F    
Average Humidity 92    
Maximum Humidity 100    
Minimum Humidity 84    
Precipitation  
Precipitation 0.71 in 0.13 in 1.62 in (1982)
Month to date precipitation 4.91 2.57  
Year to date precipitation 33.42 24.48  
Snow  
Snow 0.00 in - - ()
Month to date snowfall 0.0  
Snow Depth 0.00 in    
Sea Level Pressure  
Sea Level Pressure 29.93 in    
Wind  
Wind Speed 5 mph (South)    
Max Wind Speed 21 mph    
Max Gust Speed 28 mph    
Visibility 8 miles    
Events Rain    
T = Trace of Precipitation, MM = Missing Value Source: NWS Daily Summary

Daily Weather History Graph

Daily Weather History Graph

Search for Another Location

Airport or City:

Trip Planner

Search our weather history database for the weather conditions in past years. The results will help you decide how hot, cold, wet, or windy it might be!

Date:

Astronomy

Oct. 28, 2012 Rise Set
Actual Time 7:45 AM PDT 6:02 PM PDT
Civil Twilight 7:14 AM PDT 6:32 PM PDT
Nautical Twilight 6:39 AM PDT 7:07 PM PDT
Astronomical Twilight 6:05 AM PDT 7:42 PM PDT
Moon 5:23 PM PDT (10/28) 6:42 AM PDT (10/28)
Length of Visible Light 11h 18m
Length of Day
10h 16m
Waxing Gibbous, 99% of the Moon is Illuminated
Oct 28
Waxing Gibbous
Oct 29
Full
Nov 6
Last Quarter
Nov 13
New
Nov 20
First Quarter

Hourly Weather History & Observations

Time (PDT) Temp. Dew Point Humidity Pressure Visibility Wind Dir Wind Speed Gust Speed Precip Events Conditions
12:53 AM 61.0 °F 57.9 °F 90% 29.96 in 10.0 mi SSW 11.5 mph - N/A   Overcast
1:53 AM 61.0 °F 57.9 °F 90% 29.97 in 10.0 mi SSW 11.5 mph - N/A   Overcast
2:09 AM 60.8 °F 57.2 °F 88% 29.97 in 10.0 mi SSW 10.4 mph - N/A   Mostly Cloudy
2:40 AM 60.8 °F 57.2 °F 88% 29.98 in 10.0 mi SSW 6.9 mph - N/A   Overcast
2:53 AM 60.1 °F 57.9 °F 93% 29.98 in 10.0 mi SSW 6.9 mph - N/A   Mostly Cloudy
3:53 AM 60.1 °F 57.0 °F 90% 29.97 in 10.0 mi Calm Calm - N/A   Mostly Cloudy
4:51 AM 60.8 °F 57.2 °F 88% 29.97 in 10.0 mi Calm Calm - N/A   Overcast
4:53 AM 60.1 °F 57.0 °F 90% 29.97 in 10.0 mi Calm Calm - N/A   Overcast
5:53 AM 60.1 °F 57.0 °F 90% 29.97 in 10.0 mi Calm Calm - N/A   Overcast
6:53 AM 59.0 °F 57.0 °F 93% 29.96 in 9.0 mi SSW 9.2 mph - 0.01 in Rain Rain
7:53 AM 59.0 °F 57.0 °F 93% 29.96 in 10.0 mi South 6.9 mph - 0.02 in   Overcast
8:53 AM 59.0 °F 57.9 °F 96% 29.97 in 10.0 mi SW 3.5 mph - N/A   Overcast
9:21 AM 60.8 °F 57.2 °F 88% 29.97 in 10.0 mi Calm Calm - N/A   Overcast
9:53 AM 60.8 °F 57.2 °F 88% 29.98 in 10.0 mi SW 4.6 mph - N/A   Mostly Cloudy
10:53 AM 62.1 °F 57.9 °F 86% 29.97 in 10.0 mi Calm Calm - 0.00 in   Overcast
11:53 AM 62.1 °F 57.0 °F 84% 29.97 in 10.0 mi Calm Calm - 0.00 in Rain Light Rain
12:53 PM 62.1 °F 57.9 °F 86% 29.96 in 9.0 mi Calm Calm - 0.01 in Rain Light Rain
1:53 PM 57.9 °F 53.1 °F 84% 29.94 in 5.0 mi Calm Calm - 0.12 in Rain Rain
2:53 PM 55.9 °F 53.1 °F 90% 29.93 in 4.0 mi Calm Calm - 0.18 in Rain Rain
3:34 PM 55.4 °F 53.6 °F 94% 29.92 in 4.0 mi Calm Calm - 0.06 in Rain Rain
3:49 PM 55.4 °F 51.8 °F 88% 29.91 in 4.0 mi Calm Calm - 0.08 in Rain Rain
3:53 PM 55.9 °F 52.0 °F 87% 29.92 in 4.0 mi Calm Calm - 0.10 in Rain Rain
4:34 PM 55.4 °F 53.6 °F 94% 29.91 in 2.5 mi Calm Calm - 0.06 in Rain Light Rain
4:53 PM 55.0 °F 55.0 °F 100% 29.90 in 2.5 mi Calm Calm - 0.07 in Rain Light Rain
5:53 PM 55.9 °F 55.0 °F 97% 29.89 in 8.0 mi Calm Calm - 0.04 in Rain Light Rain
6:53 PM 57.0 °F 55.9 °F 96% 29.88 in 10.0 mi ESE 8.1 mph - 0.05 in   Overcast
7:37 PM 57.2 °F 55.4 °F 94% 29.88 in 9.0 mi ESE 5.8 mph - 0.01 in Rain Light Rain
7:53 PM 57.0 °F 57.0 °F 100% 29.87 in 4.0 mi ESE 6.9 mph - 0.05 in Rain Light Rain
8:41 PM 60.8 °F 59.0 °F 94% 29.86 in 10.0 mi South 8.1 mph - 0.01 in Rain Light Rain
8:53 PM 61.0 °F 59.0 °F 93% 29.86 in 10.0 mi South 9.2 mph - 0.01 in Rain Light Rain
9:01 PM 62.6 °F 59.0 °F 88% 29.86 in 10.0 mi South 12.7 mph - 0.00 in   Overcast
9:48 PM 62.6 °F 60.8 °F 94% 29.85 in 8.0 mi South 11.5 mph 19.6 mph 0.01 in Rain Light Rain
9:53 PM 62.1 °F 60.1 °F 93% 29.86 in 8.0 mi South 9.2 mph 19.6 mph 0.02 in Rain Light Rain
10:53 PM 62.1 °F 59.0 °F 90% 29.86 in 10.0 mi South 4.6 mph - 0.01 in Rain Light Rain
11:53 PM 62.1 °F 59.0 °F 90% 29.84 in 10.0 mi South 16.1 mph 23.0 mph 0.02 in Rain Light Rain